Home   Weather   Sandnes   Past weeks

Flag for Norway Past Weather in Sandnes, Norway — Yesterday and Last 2 Weeks

Now
39 °F

Scattered showers. Partly sunny.


Feels Like: 30 °F
Forecast: 34 / 39 °F
Wind: 17 mph from Northwest

Location: Stavanger / Sola

Current Time: Apr 23, 2017 at 12:06:57 pm

Latest Report: Apr 23, 2017 at 11:20 am


Visibility: N/A

Pressure: 30.07 "Hg

Humidity: 70%

Dew Point: 30 °F

Location of SandnesLocation

Past Weather in Sandnes — Graph

°F

Sandnes Temperature Yesterday

Maximum temperature yesterday: 45 °F (at 10:50 am)
Minimum temperature yesterday: 37 °F (at 12:20 am)
Average temperature yesterday: 41 °F

High & Low Weather Summary for the Past Weeks

 TemperatureHumidityPressure
High54 °F (Apr 9, 3:50 pm)100% (Apr 11, 7:50 pm)30.60 "Hg (Apr 11, 7:50 pm)
Low28 °F (Apr 17, 6:20 am)42% (Apr 18, 10:20 am)29.47 "Hg (Apr 12, 6:50 pm)
Average41 °F80%29.97 "Hg
* Reported Apr 8 10:20 am — Apr 23 10:50 am, Sandnes, Weather by CustomWeather, © 2017

Note: Actual official high and low records may vary slightly from our data, if they occured in-between our weather recording intervals... More about our weather records

Advertising

Sandnes Weather History for the Previous 24 Hours

Scroll right to see more
 ConditionsComfort  
Time TempWeatherWind HumidityBarometerVisibility
10:50 am
Sun, Apr 23
41 °FScattered showers. Scattered clouds.15 mph66%30.07 "HgN/A
10:20 am39 °FScattered clouds.8 mph75%30.07 "HgN/A
9:50 am37 °FScattered clouds.5 mph87%30.07 "HgN/A
9:20 am34 °FScattered showers. Scattered clouds.13 mph87%30.07 "HgN/A
8:50 am36 °FScattered showers. Broken clouds.13 mph81%30.07 "HgN/A
8:20 am34 °FScattered showers. Scattered clouds.8 mph93%30.07 "HgN/A
7:50 am34 °FSnow flurries. Light fog.12 mph87%30.07 "Hg4 mi
7:20 am34 °FScattered showers. Partly sunny.5 mph93%30.07 "HgN/A
6:50 am34 °FScattered showers. Scattered clouds.10 mph87%30.07 "HgN/A
6:20 am34 °FScattered showers. Broken clouds.8 mph87%30.07 "HgN/A
5:50 am34 °FPartly cloudy.7 mph87%30.07 "HgN/A
5:20 am34 °FPassing clouds.6 mph87%30.07 "HgN/A
3:20 am36 °FPassing clouds.10 mph81%30.07 "HgN/A
2:50 am36 °FPassing clouds.15 mph81%30.07 "HgN/A
2:20 am36 °FPassing clouds.15 mph81%30.07 "HgN/A
1:50 am37 °FPassing clouds.20 mph70%30.07 "HgN/A
1:20 am37 °FPassing clouds.20 mph75%30.07 "HgN/A
12:50 am37 °FScattered showers. Passing clouds.16 mph70%30.07 "HgN/A
12:20 am37 °FScattered showers. Partly cloudy.23 mph75%30.07 "HgN/A
11:50 pm
Sat, Apr 22
37 °FPassing clouds.8 mph87%30.07 "HgN/A
11:20 pm37 °FPartly cloudy.12 mph87%30.07 "HgN/A
10:50 pm37 °FSprinkles. Passing clouds.22 mph87%30.07 "HgN/A
10:20 pm39 °FScattered showers. Partly cloudy.16 mph81%30.07 "HgN/A
9:50 pm37 °FScattered showers. Partly cloudy.20 mph87%30.07 "HgN/A
9:20 pm39 °FScattered showers. Partly cloudy.16 mph81%30.07 "HgN/A
8:20 pm39 °FScattered showers. Broken clouds.15 mph87%30.07 "HgN/A
7:50 pm39 °FSprinkles. Partly sunny.20 mph81%30.07 "HgN/A
7:20 pm41 °FScattered showers. Broken clouds.20 mph76%30.07 "HgN/A
6:50 pm41 °FScattered clouds.20 mph76%30.07 "HgN/A
6:20 pm43 °FScattered clouds.18 mph76%30.07 "HgN/A
5:50 pm43 °FScattered clouds.25 mph76%30.07 "HgN/A
5:20 pm43 °FScattered clouds.16 mph71%30.07 "HgN/A
4:50 pm43 °FScattered showers. Scattered clouds.15 mph76%30.07 "HgN/A
4:20 pm41 °FScattered showers. Partly sunny.21 mph70%30.07 "HgN/A
3:50 pm45 °FScattered showers. Scattered clouds.22 mph76%30.07 "HgN/A
3:20 pm45 °FScattered clouds.22 mph71%30.07 "HgN/A
2:50 pm45 °FScattered clouds.22 mph71%30.07 "HgN/A
2:20 pm45 °FScattered clouds.23 mph71%30.07 "HgN/A
1:50 pm43 °FScattered clouds.16 mph81%30.07 "HgN/A
1:20 pm45 °FPassing clouds.13 mph61%30.07 "HgN/A
12:50 pm43 °FLight rain. Scattered clouds.18 mph66%30.07 "HgN/A
12:20 pm45 °FScattered clouds.20 mph61%30.07 "HgN/A
Weather by CustomWeather, © 2017

See weather overviewHow to use our weather pages